Probability
0 0 0 0 0 0 0 0 0 0 0 0 0 0 0 0 0 0 0 0 0 0 0 0 0 0 0 0 0 0 0 0 0 0 0 1 3 3 2 1 2 2 1
0 0 0 0 0 0 0 0 0 0 0 0 0 0 0 0 0 0 0 0 0 0 0 0 0 0 0 0 0 0 0 0 0 0 0 1 2 2 1 1 2 2 1
0 0 0 0 0 0 1 1 0 0 0 0 0 0 0 0 0 0 1 1 1 1 1 0 1 1 1 0 0 0 0 0 0 0 0 1 1 1 1 1 2 1 0
0 0 0 0 0 0 1 1 0 0 0 0 0 0 0 0 0 0 1 1 1 1 1 0 1 2 1 0 0 0 0 0 1 0 0 0 0 0 0 1 1 0 0
0 0 0 0 0 0 1 1 0 0 0 0 0 0 0 0 0 0 1 1 0 0 1 1 1 2 2 1 1 1 1 1 1 0 0 0 0 0 0 0 0 0 0
0 0 0 0 0 0 0 0 0 0 0 0 0 0 0 0 0 0 0 0 0 0 1 1 1 1 2 2 2 2 2 1 0 0 0 0 0 0 0 0 0 0 0
0 0 0 0 0 0 0 0 0 0 0 0 0 0 0 0 0 0 0 0 0 0 0 0 1 1 1 2 3 3 1 1 0 0 0 0 0 0 0 0 0 0 0
0 0 0 0 0 0 0 0 0 0 0 0 0 0 0 0 0 0 0 0 0 0 0 0 0 0 0 1 2 2 1 0 0 0 0 0 0 0 0 0 0 0 0
0 0 0 0 0 0 0 0 0 0 0 0 0 0 0 0 0 0 0 0 0 0 0 0 0 0 0 0 1 1 0 0 0 0 0 0 0 0 0 0 0 0 0
0 0 0 0 0 0 0 0 0 0 0 0 0 0 0 0 0 0 0 0 0 0 0 0 0 0 0 0 0 0 0 0 0 0 0 0 0 0 0 0 1 1 0
0 0 0 0 0 0 0 0 0 0 0 0 0 0 0 0 0 0 0 0 0 1 0 0 0 0 0 0 0 0 0 0 0 0 0 0 0 0 1 1 1 1 1
0 0 0 0 0 0 0 0 0 0 0 0 0 0 0 0 0 0 0 0 0 0 0 0 0 0 0 0 0 0 0 0 0 0 0 0 0 0 1 1 1 1 0
0 0 0 0 0 0 0 0 0 0 0 0 0 0 0 0 0 0 0 0 0 0 0 0 0 0 0 0 0 0 0 0 0 0 0 0 0 0 1 1 0 0 0
0 0 0 0 1 1 1 0 0 0 0 0 0 0 0 0 0 0 0 0 0 0 0 0 0 0 0 0 0 0 0 0 0 0 0 0 0 0 0 0 0 0 0
0 0 0 0 0 0 0 0 0 0 0 0 0 0 0 0 0 0 0 0 0 0 0 0 0 0 0 0 0 0 0 0 0 0 0 0 0 0 0 0 0 0 0
0 0 0 0 0 0 0 0 0 0 0 0 0 0 0 0 0 0 0 0 0 0 0 0 0 0 0 0 0 0 0 0 1 1 0 0 0 0 0 0 1 1 1
0 0 0 0 0 0 0 0 0 0 0 0 0 0 0 0 0 0 0 0 0 0 0 0 0 0 0 0 0 0 0 0 1 1 0 0 0 0 0 0 0 1 2
0 0 0 0 0 0 0 0 0 0 0 0 0 0 0 0 0 0 0 0 0 0 0 0 0 0 0 0 0 0 0 0 1 1 0 0 0 0 0 0 0 1 2
0 0 0 0 0 0 0 0 0 0 0 0 0 0 0 0 0 0 0 0 0 0 0 0 0 0 0 0 0 0 0 0 0 0 0 0 0 0 0 0 0 0 1
0 0 0 0 0 0 0 0 0 0 0 0 0 0 0 0 0 0 0 0 0 0 0 0 0 0 0 0 0 0 0 0 0 0 0 0 0 0 0 0 0 0 0
0 0 0 0 0 0 0 0 0 0 0 0 0 0 0 0 0 0 0 0 0 0 0 0 0 0 0 0 0 0 0 0 0 0 0 0 0 0 0 0 0 0 0
0 0 0 0 0 0 0 0 0 0 0 0 0 0 0 0 0 0 0 0 0 0 0 0 0 0 0 0 0 0 0 0 0 0 0 0 0 0 0 0 0 0 0
0 0 0 0 0 0 0 0 0 0 0 0 0 0 0 0 0 0 0 0 0 0 0 0 0 0 0 0 0 0 0 0 0 0 0 0 0 0 0 0 0 1 1
0 0 0 0 0 0 0 0 0 0 0 0 0 0 0 0 0 0 0 0 0 0 0 0 0 0 0 0 0 0 0 0 0 0 0 0 0 0 0 0 0 1 2
0 0 0 0 0 0 0 0 0 0 0 0 0 0 0 0 0 0 0 0 0 0 0 0 0 0 0 0 0 0 0 0 0 0 0 0 0 0 0 0 0 1 1
0 0 0 0 0 0 0 0 0 0 0 0 0 0 0 0 0 0 0 0 0 0 0 0 0 0 0 0 0 0 0 0 0 0 0 0 0 0 0 0 0 0 0
Wind_Speed
3 4 6 5 6 6 6 7 7 8 8 7 8 8 8 7 7 6 6 6 6 7 7 7 7 7 7 7 7 7 7 8 8 9 9 8 7 6 6 5 3 5 7
4 4 5 4 5 6 6 6 7 8 8 8 8 8 8 8 8 7 7 6 7 7 7 7 7 7 7 7 7 8 7 8 8 8 8 8 8 7 6 5 4 5 6
4 4 4 5 5 6 6 6 6 7 7 8 8 9 9 9 8 8 7 7 7 8 7 7 7 8 8 8 8 8 8 8 8 7 4 5 7 8 6 6 6 6 5
4 4 5 5 5 5 6 7 7 7 7 7 8 8 9 8 8 8 8 8 8 8 7 7 8 8 9 9 8 8 9 8 7 3 3 5 6 9 7 6 6 6 5
5 4 6 5 6 6 7 7 7 7 7 8 7 8 8 8 8 8 8 8 8 8 8 8 8 8 9 8 8 8 8 8 6 4 6 5 5 8 7 6 6 6 6
5 5 7 6 6 7 7 7 7 7 7 7 7 7 8 8 8 8 8 8 8 9 9 9 8 8 8 8 8 8 8 6 3 6 5 5 6 8 7 7 6 6 6
5 6 7 7 6 6 7 7 7 8 7 7 8 7 8 8 8 9 9 9 9 10 10 10 9 9 9 8 8 8 8 5 5 6 5 6 7 8 8 8 7 7 6
5 5 6 7 6 6 7 7 7 7 8 8 8 8 8 8 8 8 9 9 10 10 10 10 10 10 9 9 9 9 7 4 5 6 6 6 9 8 8 8 8 8 7
5 5 5 5 6 6 6 6 7 7 8 9 9 9 9 9 9 9 9 9 9 10 10 10 10 10 11 11 10 10 8 5 5 5 6 6 9 9 8 8 8 8 7
4 5 5 5 5 5 6 7 6 7 8 9 9 9 8 8 8 8 8 9 10 10 11 10 11 11 12 12 11 9 6 2 5 5 5 7 9 8 8 8 8 7 7
4 4 4 5 5 5 5 6 5 6 6 5 7 7 4 5 7 6 11 9 9 10 11 10 10 10 10 11 10 6 2 3 5 5 6 9 8 9 9 8 8 7 6
5 4 4 4 4 5 4 4 3 4 5 5 5 5 4 5 6 6 9 9 9 9 10 10 8 6 3 5 6 2 3 5 5 5 7 10 9 8 8 8 7 7 7
4 4 4 4 4 4 3 3 3 3 3 4 5 5 4 4 4 4 3 5 5 5 5 6 4 4 5 5 4 4 5 5 4 5 8 10 9 8 8 8 7 7 7
4 3 4 4 4 4 4 3 2 3 3 3 4 5 3 3 3 4 3 4 3 3 4 4 4 6 6 6 6 6 6 4 4 4 7 10 9 8 8 8 8 7 7
3 3 4 3 3 3 3 2 3 3 3 4 3 3 4 3 3 4 3 3 4 4 4 4 5 6 6 6 6 6 6 6 6 5 5 10 9 9 8 8 8 8 8
3 4 4 3 3 3 3 3 3 3 3 3 3 3 4 3 3 3 4 4 4 3 3 4 5 5 5 5 6 6 6 6 5 5 5 6 10 9 9 9 9 9 9
3 4 4 3 3 3 3 3 3 2 3 3 3 3 4 3 3 3 3 3 3 3 4 4 5 4 4 5 5 6 5 6 6 6 5 4 5 9 11 10 10 10 10
3 4 4 3 3 4 3 2 2 2 3 2 2 2 3 3 3 2 2 3 3 3 3 3 3 4 4 4 4 4 5 5 6 6 5 5 5 5 8 11 11 10 10
3 4 4 3 3 3 3 2 2 2 2 2 2 2 2 3 2 3 2 2 3 3 3 3 3 3 4 4 4 4 4 5 5 5 6 7 6 5 5 8 9 10 10
3 3 4 3 2 3 2 2 2 2 2 1 1 1 2 2 2 2 2 2 3 2 3 3 4 3 3 3 4 4 4 4 4 5 5 5 5 6 6 6 5 7 10
3 3 3 3 3 2 2 1 1 1 1 1 1 2 1 1 1 1 1 2 2 2 3 3 3 4 3 2 2 3 4 4 4 4 4 4 5 5 5 5 4 4 4
4 3 3 2 2 2 1 1 0 1 1 1 1 1 1 1 1 1 1 2 2 2 3 3 3 1 2 1 0 1 2 3 3 3 3 3 4 4 5 5 5 5 4
4 4 2 2 2 2 2 1 1 1 1 1 2 1 1 1 0 1 1 1 2 2 3 3 3 2 1 1 1 2 1 1 2 2 3 3 3 3 4 4 5 5 5
5 4 3 3 2 2 2 1 1 0 0 1 1 1 1 1 1 1 1 1 2 2 3 3 3 2 2 1 1 1 2 1 1 1 2 2 3 3 4 3 4 4 5
5 4 3 3 3 2 2 1 1 0 0 0 0 1 1 1 1 1 1 1 2 2 2 2 2 2 2 2 1 0 0 1 2 1 1 1 2 2 3 3 3 3 4
5 4 4 4 3 2 2 2 1 1 1 1 1 1 1 1 1 1 0 1 1 1 2 2 2 3 2 2 2 1 1 1 1 1 1 1 1 2 2 2 2 2 2
Wind_Direction
44 46 43 26 41 42 45 47 49 52 54 56 57 58 61 67 71 75 77 84 90 90 89 92 91 90 86 81 78 82 90 97 96 98 101 100 100 102 104 107 128 122 108
50 58 57 32 44 45 46 52 52 53 54 55 59 61 62 65 68 72 73 79 86 89 88 87 89 88 86 81 79 79 82 93 94 95 101 109 100 91 92 85 63 79 99
59 64 75 52 50 49 50 54 56 55 56 58 57 59 60 63 68 68 69 73 78 84 85 86 87 87 87 83 81 78 78 84 87 92 108 103 100 93 87 84 83 86 91
60 58 57 55 51 52 54 53 55 58 58 60 59 59 59 64 66 65 65 70 73 78 79 80 82 84 85 83 81 79 77 77 81 94 98 82 87 87 83 84 86 84 85
65 59 66 52 57 61 60 56 57 60 61 61 60 61 62 65 67 67 69 74 74 75 75 78 81 83 85 85 84 81 79 77 82 74 68 69 74 81 77 78 82 84 80
70 69 76 64 60 59 60 60 62 64 63 63 63 64 65 68 68 69 68 75 77 78 77 75 75 78 81 83 82 82 80 74 88 73 67 68 74 79 77 77 76 78 77
68 73 79 73 63 58 59 59 60 62 63 62 63 65 64 67 68 68 69 75 75 75 75 72 69 71 75 78 82 83 81 70 72 77 72 65 68 75 77 75 76 74 76
68 72 86 94 71 57 57 58 59 60 63 65 64 63 64 66 71 70 71 75 77 77 76 72 69 69 73 77 79 77 69 36 82 75 71 69 68 71 75 74 72 69 70
68 70 71 82 98 99 74 58 57 60 63 66 67 64 64 65 70 73 76 77 79 78 80 77 76 75 76 77 78 75 68 45 61 66 70 69 70 69 72 71 72 72 69
74 75 70 68 58 69 86 81 66 66 66 69 70 68 72 82 82 81 84 78 79 82 81 79 79 79 76 74 74 72 67 59 64 68 63 68 69 68 69 72 72 70 67
81 74 67 68 63 59 61 78 89 91 83 94 94 88 87 79 79 84 68 72 80 83 82 80 80 83 85 86 76 69 66 64 66 57 58 59 64 66 68 66 65 65 65
81 70 69 67 65 65 62 69 63 71 75 67 68 73 68 71 67 68 85 80 85 90 95 85 83 94 88 87 93 90 64 67 63 64 63 57 59 63 66 64 61 58 57
79 67 58 63 63 64 70 64 59 62 69 72 69 71 72 79 88 80 90 106 102 102 89 95 92 68 66 63 53 60 54 50 51 54 60 55 54 56 62 63 60 56 54
78 68 58 51 64 66 67 65 66 69 67 70 68 63 66 69 67 71 74 76 77 78 75 69 68 72 65 63 61 61 60 53 54 55 56 51 48 48 57 62 60 57 58
94 91 74 60 54 66 68 63 75 74 67 75 66 59 68 72 72 78 83 80 75 76 80 76 72 72 66 57 55 55 57 53 48 52 59 56 46 44 51 57 58 58 60
97 92 84 77 73 63 72 75 71 72 79 69 68 59 71 77 79 79 83 82 75 72 73 79 82 77 69 64 58 52 49 51 48 47 50 66 60 48 50 56 58 62 63
96 95 88 79 81 77 71 69 73 72 73 69 61 56 70 72 84 86 83 89 88 91 92 85 85 77 78 78 72 62 55 46 46 47 46 46 66 66 58 55 57 62 64
97 94 97 96 86 81 77 75 78 79 72 71 68 62 65 71 77 86 90 91 98 98 97 92 85 82 77 71 67 63 62 57 50 48 51 57 55 60 68 59 56 60 64
110 105 104 94 86 88 86 86 68 73 73 60 56 63 70 75 80 90 91 97 104 110 107 98 88 80 83 79 76 67 60 58 53 51 55 53 58 59 66 74 66 59 61
128 119 114 111 92 90 89 85 82 71 69 59 46 54 58 73 92 105 131 127 123 125 114 110 108 97 87 89 83 75 68 68 61 51 49 52 53 57 59 62 72 71 61
153 137 120 129 114 101 92 85 61 65 75 86 75 66 76 80 110 114 142 137 149 138 131 136 127 123 115 109 114 104 97 77 65 60 49 52 59 58 63 63 59 63 76
160 157 138 131 126 116 93 53 83 61 47 65 78 79 61 72 90 130 158 154 157 149 155 150 154 141 126 180 281 182 146 126 88 66 64 50 53 65 58 58 63 63 57
169 165 159 151 144 131 120 110 107 116 166 139 112 97 61 53 100 196 154 157 167 178 168 175 181 184 177 184 305 314 309 67 96 98 63 63 56 55 60 57 59 59 61
171 170 169 158 149 132 137 139 137 310 35 48 63 113 134 120 127 162 166 179 184 182 183 194 192 199 213 207 182 301 338 26 270 132 120 76 58 54 53 56 55 59 63
163 165 172 161 154 149 150 148 235 258 339 89 120 133 144 118 103 134 166 182 193 195 201 207 209 216 215 237 231 172 122 216 258 243 133 127 101 72 59 54 56 56 60
162 165 174 174 167 169 181 187 212 214 227 203 196 164 160 135 130 114 167 197 199 200 204 214 214 211 229 231 237 231 228 246 247 228 198 180 127 91 82 67 59 60 65